Regional Weather Roundup
Issued by NWS Charleston, SC

Current Version | Previous Version | Graphics & Text | Print | Product List | Glossary On
Versions: 1 2 3 4 5 6 7 8 9 10 11 12 13 14 15 16 17 18 19 20 21 22 23 24 25 26 27 28 29 30 31 32 33 34 35 36 37 38 39 40 41 42 43 44 45 46 47 48 49 50
000 ASUS42 KCHS 090812 RWRCHS REGIONAL WEATHER ROUNDUP NATIONAL WEATHER SERVICE CHARLESTON SC 300 AM EST TUE FEB 09 2016 NOTE: "FAIR" INDICATES FEW OR NO CLOUDS BELOW 12,000 FEET WITH NO SIGNIFICANT WEATHER AND/OR OBSTRUCTIONS TO VISIBILITY. NOT ALL STATIONS ARE QUALITY CONTROLLED BY THE NATIONAL WEATHER SERVICE. USE DATA WITH CAUTION...ESPECIALLY DEWPOINT OBSERVATIONS. NOTICE: OBSERVATIONS FOR THE SAVANNAH-HILTON HEAD INTERNATIONAL AIRPORT /KSAV/ HAVE BEEN TEMPORARILY REMOVED DUE TO AN ERRONEOUS TEMPERATURE SENSOR. THE OBSERVATION WILL BE REINTRODUCED ONCE REPAIRS ARE COMPLETE. SCZ027-030-031-034>040-042>050-090900- ...SOUTHEAST SOUTH CAROLINA... CITY SKY/WX TMP DP RH WIND PRES REMARKS N CHARLESTON CLEAR 40 32 73 W10 29.75S WCI 33 WATERFRONT PRK N/A 43 32 65 W6 29.60S MOUNT PLEASANT FAIR 43 32 65 W12 29.75R JOHNS ISLAND FAIR 41 32 70 W10 29.76S PINOPOLIS N/A 45 34 65 W15 29.65S MONCKS CORNER FAIR 37 27 65 W6 29.74S WCI 33 SUMMERVILLE FAIR 37 32 81 W6 29.76S WCI 33 BEAUFORT MCAS CLEAR 41 31 67 W10 29.80R BEAUFORT ARPT FAIR 41 32 70 W12G17 29.79S HILTON HEAD IS CLEAR 43 34 70 W8 29.82R WALTERBORO SUNNY 41 32 70 W10 29.78R ALLENDALE FAIR 39 28 65 CALM 29.78R ...SOUTHERN MIDLANDS AND PEE DEE... CITY SKY/WX TMP DP RH WIND PRES REMARKS GEORGETOWN NOT AVBL KINGSTREE NOT AVBL ORANGEBURG CLEAR 40 25 55 W12 29.74S WCI 33 BARNWELL FAIR 39 28 65 W8 29.77S WCI 34 AIKEN FAIR 36 19 51 W14G20 29.78S WCI 27 MANNING NOT AVBL COLUMBIA CLEAR 38 25 59 SW8 29.72S WCI 32 SUMTER CLEAR 38 26 62 W10 29.69R WCI 30 FLORENCE PTCLDY 39 30 70 W8 29.67R WCI 33 MYRTLE BEACH CLEAR 43 30 61 W10G18 29.69S N MYRTLE BEACH CLEAR 43 36 76 W9 29.65S $$ GAZ063-065-086>088-099>101-113>116-118-119-134>141-150-090900- ...SOUTHEAST GEORGIA... CITY SKY/WX TMP DP RH WIND PRES REMARKS SAVANNAH ARPT CLEAR 39 32 76 W9 29.83R WCI 33 HUNTER AAF CLEAR 37 34 89 W10 29.80S WCI 30 FORT STEWART CLEAR 40 31 72 W9 29.82S WCI 33 STATESBORO PTCLDY 43 26 50 W10 29.83R SYLVANIA MOSUNNY 38 33 80 W9 29.81S WCI 32 CLAXTON FAIR 40 33 75 SW6 29.84S WCI 36 ...CSRA...CENTRAL AND FAR SOUTHEAST GEORGIA... CITY SKY/WX TMP DP RH WIND PRES REMARKS THOMSON CLEAR 34 28 76 W3 29.84S AUGUSTA-BUSH CLEAR 39 22 50 NW15 29.79S WCI 31 AUGUSTA-DANIEL CLEAR 39 21 48 W9 29.79S WCI 33 SWAINSBORO FAIR 37 28 70 W6 29.84S WCI 33 VIDALIA PTCLDY 41 27 56 W9G17 29.85S EASTMAN FAIR 40 22 49 W5 29.89S WCI 37 HAZLEHURST FAIR 39 31 74 W3 29.86S ALMA CLEAR 40 29 64 W5 29.88R WCI 37 WAYCROSS CLEAR 44 32 63 W8 29.89S JESUP FAIR 43 34 70 NW7 29.87R BAXLEY FAIR 41 32 70 W5 29.87S BRUNSWICK CLEAR 41 36 81 W9 29.87S SAINT SIMONS PTCLDY 44 35 70 W8 29.86R $$ SCZ027-028-034-036>038-045-046-048>050-GAZ119-141-090900- ...LAKE AND SUPPLEMENTAL COASTAL OBSERVATIONS... STATION/POSITION TIME TEMP WIND PRES WAVE SWELL AIR SEA DIR/SP/G HT/PER HT/PER/DIR (UTC) (F) (DEG/KT/KT) (MB) (FT/S) (FT/S/D) WINYAH BAY NOT AVBL LAKE MURRAY 0700 42 270/ 16/ 22 1005.8S ACE BASIN NERRS NOT AVBL FORT PULASKI 0700 43 52 260/ 10/ 12 1009.6R SAPELO ISLAND 0700 45 260/ 9 1010.0S $$ ANZ835-935-AMZ111-154-330-350-352-354-370-450-454-472-090900- ...C-MAN AND BUOY OBSERVATIONS... STATION/POSITION TIME TEMP WIND PRES WAVE SWELL AIR SEA DIR/SP/G HT/PER HT/PER/DIR (UTC) (F) (DEG/KT/KT) (MB) (FT/S) (FT/S/D) BUOY 41004 0750 52 65 290/ 27/ 33 1005.5R 8/ 8 3/16 BUOY 41008 0750 49 54 290/ 21/ 25 1010.1R 3/ 4 2/ 90/10 FOLLY BEACH CMAN 0800 41 270/ 9/ 13 1007.7R CAPERS NEARSHORE 0708 46 280/ 19/ 25 1006.4R FRIPP NEARSHORE 0700 46 300/ 16/ 17 1008.7R STATION/POSITION TIME TEMP WIND PRES WAVE SWELL AIR SEA DIR/SP/G HT/PER HT/PER/DIR (UTC) (F) (DEG/KT/KT) (MB) (FT/S) (FT/S/D) 5E ST. MARYS GA 0721 56 N/A 3/17 2/100/17 FRYING PAN BUOY 0700 53 61 280/ 17/ 23 1003.8F BUOY 41025 0750 48 73 290/ 16/ 21 1002.1R 11/15 10/ 80/15 CAPE LOOKOUT NC NOT AVBL BUOY 41002 0750 64 69 260/ 31/ 43 N/A 14/ 8 7/330/15 BUOY 41010 0720 68 72 1007.4F ST AUGUSTINE FL 0800 50 57 300/ 7/ 9 1012.9R $$

USA.gov is the U.S. government's official web portal to all federal, state and local government web resources and services.